| time (UTC) | temp F | wind direction | speed MPH | gust MPH | rain 1hr in | rain 24hr in | rain mn in | humidity % | barometer mb |
| 20260906093522 | 71 | 270 | 0.0 | 0.0 | 0.00 | 0.00 | 0.00 | 97 | 1013.5 |
| 20260906093017 | 71 | 261 | 0.0 | 0.0 | 0.00 | 0.00 | 0.00 | 97 | 1013.5 |
| 20260906092516 | 71 | 269 | 0.0 | 0.0 | 0.00 | 0.00 | 0.00 | 97 | 1013.4 |
| 20260906092012 | 71 | 273 | 0.0 | 1.0 | 0.00 | 0.00 | 0.00 | 97 | 1013.6 |
| 20260906091508 | 71 | 266 | 0.0 | 0.0 | 0.00 | 0.00 | 0.00 | 97 | 1013.3 |
| 20260906091004 | 71 | 278 | 0.0 | 0.0 | 0.00 | 0.00 | 0.00 | 97 | 1013.4 |
| 20260906090459 | 71 | 265 | 0.0 | 0.0 | 0.00 | 0.00 | 0.00 | 97 | 1013.3 |
| 20260906085959 | 71 | 275 | 0.0 | 0.0 | 0.00 | 0.00 | 0.00 | 96 | 1013.4 |
| 20260906085458 | 71 | 278 | 0.0 | 0.0 | 0.00 | 0.00 | 0.00 | 96 | 1013.5 |
| 20260906084957 | 71 | 249 | 1.0 | 2.0 | 0.00 | 0.00 | 0.00 | 96 | 1013.3 |
| 20260906084452 | 71 | 273 | 0.0 | 0.0 | 0.00 | 0.00 | 0.00 | 96 | 1013.3 |
| 20260906083951 | 72 | 275 | 0.0 | 0.0 | 0.00 | 0.00 | 0.00 | 96 | 1013.3 |
| 20260906083447 | 72 | 282 | 0.0 | 0.0 | 0.00 | 0.00 | 0.00 | 96 | 1013.3 |
| 20260906082946 | 72 | 265 | 0.0 | 1.0 | 0.00 | 0.00 | 0.00 | 96 | 1013.4 |
| 20260906082442 | 72 | 273 | 0.0 | 0.0 | 0.00 | 0.00 | 0.00 | 96 | 1013.2 |
| 20260906081937 | 73 | 272 | 0.0 | 0.0 | 0.00 | 0.00 | 0.00 | 97 | 1013.2 |
| 20260906081432 | 73 | 276 | 0.0 | 0.0 | 0.00 | 0.00 | 0.00 | 97 | 1013.3 |
| 20260906080929 | 73 | 265 | 0.0 | 1.0 | 0.00 | 0.00 | 0.00 | 97 | 1013.3 |
| 20260906080425 | 72 | 353 | 1.0 | 1.0 | 0.00 | 0.00 | 0.00 | 98 | 1013.2 |
| 20260906075925 | 72 | 358 | 1.0 | 1.0 | 0.00 | 0.00 | 0.00 | 98 | 1013.2 |
| 20260906075420 | 72 | 288 | 0.0 | 0.0 | 0.00 | 0.00 | 0.00 | 98 | 1013.5 |
| 20260906074915 | 72 | 262 | 0.0 | 0.0 | 0.00 | 0.00 | 0.00 | 98 | 1013.4 |
| 20260906074414 | 72 | 269 | 0.0 | 0.0 | 0.00 | 0.00 | 0.00 | 98 | 1013.1 |
| 20260906073914 | 72 | 265 | 0.0 | 0.0 | 0.00 | 0.00 | 0.00 | 98 | 1013.2 |
| 20260906073408 | 72 | 244 | 0.0 | 2.0 | 0.00 | 0.00 | 0.00 | 98 | 1013.0 |
| 20260906072905 | 72 | 270 | 0.0 | 0.0 | 0.00 | 0.00 | 0.00 | 98 | 1013.1 |
| 20260906072400 | 72 | 270 | 0.0 | 0.0 | 0.00 | 0.00 | 0.00 | 98 | 1012.9 |
| 20260906071856 | 72 | 268 | 0.0 | 0.0 | 0.00 | 0.00 | 0.00 | 98 | 1013.2 |
| 20260906071351 | 72 | 270 | 0.0 | 0.0 | 0.00 | 0.00 | 0.00 | 98 | 1013.3 |
| 20260906070847 | 72 | 263 | 0.0 | 0.0 | 0.00 | 0.00 | 0.00 | 98 | 1013.1 |
| 20260906070343 | 72 | 263 | 0.0 | 0.0 | 0.00 | 0.00 | 0.00 | 98 | 1013.3 |
| 20260906065838 | 72 | 260 | 0.0 | 0.0 | 0.00 | 0.00 | 0.00 | 98 | 1013.3 |
| 20260906065332 | 72 | 260 | 0.0 | 0.0 | 0.00 | 0.00 | 0.00 | 98 | 1013.4 |
| 20260906064828 | 72 | 269 | 0.0 | 1.0 | 0.00 | 0.00 | 0.00 | 98 | 1013.3 |
| 20260906064324 | 72 | 276 | 0.0 | 0.0 | 0.00 | 0.00 | 0.00 | 98 | 1013.2 |
| 20260906063818 | 72 | 281 | 0.0 | 0.0 | 0.00 | 0.00 | 0.00 | 98 | 1013.3 |
| 20260906063314 | 72 | 280 | 0.0 | 0.0 | 0.00 | 0.00 | 0.00 | 98 | 1013.7 |
| 20260906062809 | 72 | 280 | 0.0 | 0.0 | 0.00 | 0.00 | 0.00 | 98 | 1013.6 |
| 20260906062308 | 72 | 263 | 0.0 | 0.0 | 0.00 | 0.00 | 0.00 | 98 | 1013.5 |
| 20260906061804 | 72 | 270 | 0.0 | 0.0 | 0.00 | 0.00 | 0.00 | 98 | 1013.6 |
| 20260906061301 | 72 | 266 | 0.0 | 0.0 | 0.00 | 0.00 | 0.00 | 98 | 1013.7 |
| 20260906060755 | 73 | 264 | 0.0 | 0.0 | 0.00 | 0.00 | 0.00 | 98 | 1013.6 |
| 20260906060253 | 73 | 271 | 0.0 | 0.0 | 0.00 | 0.00 | 0.00 | 98 | 1013.4 |
| 20260906055749 | 73 | 273 | 0.0 | 0.0 | 0.00 | 0.00 | 0.00 | 98 | 1013.5 |
| 20260906055243 | 73 | 251 | 0.0 | 0.0 | 0.00 | 0.00 | 0.00 | 98 | 1013.7 |
| 20260906054739 | 73 | 270 | 0.0 | 0.0 | 0.00 | 0.00 | 0.00 | 98 | 1013.8 |
| 20260906054234 | 73 | 270 | 0.0 | 0.0 | 0.00 | 0.00 | 0.00 | 98 | 1013.5 |
| 20260906053730 | 73 | 273 | 0.0 | 0.0 | 0.00 | 0.00 | 0.00 | 98 | 1013.5 |
| 20260906053226 | 73 | 273 | 0.0 | 0.0 | 0.00 | 0.00 | 0.00 | 98 | 1013.8 |
| 20260906052720 | 73 | 273 | 0.0 | 0.0 | 0.00 | 0.00 | 0.00 | 98 | 1013.6 |
| 20260906052217 | 73 | 273 | 0.0 | 0.0 | 0.00 | 0.00 | 0.00 | 97 | 1013.5 |
| 20260906051714 | 73 | 273 | 0.0 | 0.0 | 0.00 | 0.00 | 0.00 | 97 | 1013.6 |
| 20260906051213 | 73 | 273 | 0.0 | 0.0 | 0.00 | 0.00 | 0.00 | 98 | 1013.5 |
| 20260906050708 | 73 | 273 | 0.0 | 0.0 | 0.00 | 0.00 | 0.00 | 98 | 1013.6 |
| 20260906050203 | 73 | 273 | 0.0 | 0.0 | 0.00 | 0.00 | 0.00 | 97 | 1013.6 |
| 20260906045701 | 73 | 273 | 0.0 | 0.0 | 0.00 | 0.00 | 0.00 | 97 | 1013.5 |
| 20260906045157 | 73 | 273 | 0.0 | 0.0 | 0.00 | 0.00 | 0.00 | 97 | 1013.3 |
| 20260906044653 | 73 | 273 | 0.0 | 0.0 | 0.00 | 0.00 | 0.00 | 97 | 1013.4 |
| 20260906044148 | 73 | 273 | 0.0 | 0.0 | 0.00 | 0.00 | 0.00 | 97 | 1013.3 |
| 20260906043644 | 73 | 273 | 0.0 | 0.0 | 0.00 | 0.00 | 0.00 | 97 | 1013.3 |
| 20260906043139 | 73 | 273 | 0.0 | 0.0 | 0.00 | 0.00 | 0.00 | 97 | 1013.2 |
| 20260906042640 | 73 | 280 | 0.0 | 0.0 | 0.00 | 0.00 | 0.00 | 97 | 1013.3 |
| 20260906042139 | 73 | 294 | 0.0 | 0.0 | 0.00 | 0.00 | 0.00 | 97 | 1013.2 |
| 20260906041635 | 73 | 267 | 0.0 | 0.0 | 0.00 | 0.00 | 0.00 | 97 | 1013.1 |
| 20260906041130 | 73 | 267 | 0.0 | 0.0 | 0.00 | 0.00 | 0.00 | 97 | 1013.1 |
| 20260906040625 | 73 | 267 | 0.0 | 0.0 | 0.00 | 0.00 | 0.00 | 97 | 1013.0 |
| 20260906040120 | 74 | 267 | 0.0 | 0.0 | 0.00 | 0.00 | 0.00 | 97 | 1013.0 |
| 20260906035615 | 74 | 266 | 0.0 | 0.0 | 0.00 | 0.00 | 0.00 | 97 | 1013.1 |
| 20260906035112 | 74 | 266 | 0.0 | 0.0 | 0.00 | 0.00 | 0.00 | 96 | 1013.0 |
| 20260906034611 | 74 | 266 | 0.0 | 0.0 | 0.00 | 0.00 | 0.00 | 96 | 1013.1 |
| 20260906034106 | 74 | 266 | 0.0 | 0.0 | 0.00 | 0.00 | 0.00 | 96 | 1012.9 |
| 20260906033602 | 74 | 266 | 0.0 | 0.0 | 0.00 | 0.00 | 0.00 | 96 | 1013.0 |
| 20260906033057 | 74 | 266 | 0.0 | 0.0 | 0.00 | 0.00 | 0.00 | 96 | 1013.0 |
| 20260906032554 | 74 | 266 | 0.0 | 0.0 | 0.00 | 0.00 | 0.00 | 96 | 1012.9 |
| 20260906032053 | 74 | 266 | 0.0 | 0.0 | 0.00 | 0.00 | 0.00 | 96 | 1012.8 |
| 20260906031549 | 75 | 266 | 0.0 | 0.0 | 0.00 | 0.00 | 0.00 | 96 | 1013.1 |
| 20260906031044 | 75 | 266 | 0.0 | 0.0 | 0.00 | 0.00 | 0.00 | 96 | 1013.1 |
| 20260906030543 | 75 | 266 | 0.0 | 0.0 | 0.00 | 0.00 | 0.00 | 96 | 1013.1 |
| 20260906030044 | 75 | 266 | 0.0 | 0.0 | 0.00 | 0.00 | 0.00 | 96 | 1012.9 |
| 20260906025543 | 75 | 266 | 0.0 | 0.0 | 0.00 | 0.00 | 0.00 | 96 | 1013.1 |
| 20260906025042 | 75 | 271 | 0.0 | 0.0 | 0.00 | 0.00 | 0.00 | 96 | 1013.0 |
| 20260906024538 | 75 | 269 | 0.0 | 0.0 | 0.00 | 0.00 | 0.00 | 96 | 1013.1 |
| 20260906024037 | 75 | 269 | 0.0 | 0.0 | 0.00 | 0.00 | 0.00 | 96 | 1012.9 |
| 20260906023533 | 75 | 269 | 0.0 | 0.0 | 0.00 | 0.00 | 0.00 | 96 | 1012.9 |
| 20260906023028 | 75 | 269 | 0.0 | 0.0 | 0.00 | 0.00 | 0.00 | 95 | 1013.1 |
| 20260906022523 | 75 | 269 | 0.0 | 0.0 | 0.00 | 0.00 | 0.00 | 95 | 1012.8 |
| 20260906022019 | 75 | 269 | 0.0 | 0.0 | 0.00 | 0.00 | 0.00 | 95 | 1012.7 |
| 20260906021514 | 75 | 269 | 0.0 | 0.0 | 0.00 | 0.00 | 0.00 | 95 | 1012.7 |
| 20260906021008 | 75 | 269 | 0.0 | 0.0 | 0.00 | 0.00 | 0.00 | 95 | 1012.8 |
| 20260906020507 | 75 | 269 | 0.0 | 0.0 | 0.00 | 0.00 | 0.00 | 95 | 1012.9 |
| 20260906020008 | 76 | 269 | 0.0 | 0.0 | 0.00 | 0.00 | 0.00 | 95 | 1012.7 |
| 20260906015506 | 76 | 269 | 0.0 | 0.0 | 0.00 | 0.00 | 0.00 | 94 | 1012.8 |
| 20260906015001 | 76 | 269 | 0.0 | 0.0 | 0.00 | 0.00 | 0.00 | 94 | 1012.4 |
| 20260906014501 | 76 | 269 | 0.0 | 0.0 | 0.00 | 0.00 | 0.00 | 94 | 1012.6 |
| 20260906013957 | 76 | 274 | 0.0 | 0.0 | 0.00 | 0.00 | 0.00 | 94 | 1012.6 |
| 20260906013452 | 77 | 276 | 0.0 | 0.0 | 0.00 | 0.00 | 0.00 | 93 | 1012.3 |
| 20260906012949 | 77 | 273 | 0.0 | 0.0 | 0.00 | 0.00 | 0.00 | 93 | 1012.2 |
| 20260906012448 | 77 | 275 | 0.0 | 0.0 | 0.00 | 0.00 | 0.00 | 93 | 1012.4 |
| 20260906011948 | 77 | 270 | 0.0 | 0.0 | 0.00 | 0.00 | 0.00 | 92 | 1012.3 |
| 20260906011443 | 77 | 270 | 0.0 | 0.0 | 0.00 | 0.00 | 0.00 | 92 | 1012.0 |
| 20260906010938 | 78 | 270 | 0.0 | 0.0 | 0.00 | 0.00 | 0.00 | 91 | 1011.8 |
| 20260906010434 | 78 | 271 | 0.0 | 0.0 | 0.00 | 0.00 | 0.00 | 91 | 1011.9 |
| 20260906005930 | 78 | 273 | 0.0 | 0.0 | 0.00 | 0.00 | 0.00 | 91 | 1011.9 |
| 20260906005430 | 78 | 274 | 0.0 | 0.0 | 0.00 | 0.00 | 0.00 | 90 | 1011.9 |
| 20260906004928 | 79 | 269 | 0.0 | 0.0 | 0.00 | 0.00 | 0.00 | 89 | 1011.8 |
| 20260906004422 | 79 | 269 | 0.0 | 0.0 | 0.00 | 0.00 | 0.00 | 88 | 1012.0 |
| 20260906003918 | 80 | 270 | 0.0 | 0.0 | 0.00 | 0.00 | 0.00 | 88 | 1011.9 |
| 20260906003413 | 80 | 270 | 0.0 | 0.0 | 0.00 | 0.00 | 0.00 | 87 | 1012.1 |
| 20260906002909 | 80 | 270 | 0.0 | 0.0 | 0.00 | 0.00 | 0.00 | 86 | 1012.1 |
| 20260906002408 | 81 | 271 | 0.0 | 0.0 | 0.00 | 0.00 | 0.00 | 86 | 1012.1 |
| 20260906001904 | 82 | 277 | 0.0 | 0.0 | 0.00 | 0.00 | 0.00 | 84 | 1012.3 |
| 20260906001359 | 82 | 267 | 0.0 | 0.0 | 0.00 | 0.00 | 0.00 | 83 | 1012.5 |
| 20260906000859 | 83 | 264 | 0.0 | 0.0 | 0.00 | 0.00 | 0.00 | 82 | 1012.5 |
| 20260906000400 | 83 | 272 | 0.0 | 1.0 | 0.00 | 0.00 | 0.00 | 82 | 1012.7 |
| 20260905235855 | 84 | 267 | 0.0 | 0.0 | 0.00 | 0.00 | 0.00 | 82 | 1012.7 |
| 20260905235349 | 84 | 268 | 0.0 | 0.0 | 0.00 | 0.00 | 0.00 | 81 | 1012.6 |
| 20260905234844 | 84 | 266 | 0.0 | 0.0 | 0.00 | 0.00 | 0.00 | 81 | 1012.5 |
| 20260905234339 | 84 | 266 | 0.0 | 0.0 | 0.00 | 0.00 | 0.00 | 81 | 1012.5 |
| 20260905233834 | 84 | 266 | 0.0 | 0.0 | 0.00 | 0.00 | 0.00 | 80 | 1012.4 |
| 20260905233329 | 84 | 266 | 0.0 | 0.0 | 0.00 | 0.00 | 0.00 | 79 | 1012.5 |
| 20260905232828 | 84 | 266 | 0.0 | 0.0 | 0.00 | 0.00 | 0.00 | 79 | 1012.6 |
| 20260905232325 | 84 | 266 | 0.0 | 0.0 | 0.00 | 0.00 | 0.00 | 77 | 1012.5 |
| 20260905231820 | 85 | 268 | 0.0 | 0.0 | 0.00 | 0.00 | 0.00 | 78 | 1012.5 |
| 20260905231315 | 85 | 268 | 0.0 | 0.0 | 0.00 | 0.00 | 0.00 | 77 | 1012.4 |
| 20260905230812 | 86 | 268 | 0.0 | 0.0 | 0.00 | 0.00 | 0.00 | 76 | 1012.2 |
| 20260905230309 | 86 | 268 | 0.0 | 0.0 | 0.00 | 0.00 | 0.00 | 75 | 1012.2 |
| 20260905225809 | 86 | 267 | 0.0 | 0.0 | 0.00 | 0.00 | 0.00 | 74 | 1012.2 |
| 20260905225306 | 87 | 267 | 0.0 | 0.0 | 0.00 | 0.00 | 0.00 | 73 | 1012.1 |
| 20260905224804 | 87 | 267 | 0.0 | 0.0 | 0.00 | 0.00 | 0.00 | 71 | 1012.3 |
| 20260905224259 | 88 | 267 | 0.0 | 0.0 | 0.00 | 0.00 | 0.00 | 70 | 1012.2 |
| 20260905223755 | 89 | 267 | 0.0 | 0.0 | 0.00 | 0.00 | 0.00 | 69 | 1012.1 |
| 20260905223252 | 90 | 269 | 0.0 | 0.0 | 0.00 | 0.00 | 0.00 | 68 | 1012.0 |
| 20260905222747 | 91 | 270 | 0.0 | 0.0 | 0.00 | 0.00 | 0.00 | 65 | 1011.9 |
| 20260905222246 | 92 | 296 | 0.0 | 1.0 | 0.00 | 0.00 | 0.00 | 62 | 1011.9 |
| 20260905221742 | 94 | 274 | 0.0 | 0.0 | 0.00 | 0.00 | 0.00 | 59 | 1011.9 |
| 20260905221239 | 96 | 307 | 0.0 | 1.0 | 0.00 | 0.00 | 0.00 | 56 | 1011.9 |
| 20260905220734 | 96 | 266 | 0.0 | 0.0 | 0.00 | 0.00 | 0.00 | 52 | 1012.0 |
| 20260905220230 | 96 | 244 | 1.0 | 1.0 | 0.00 | 0.00 | 0.00 | 52 | 1011.9 |
| 20260905215729 | 96 | 251 | 1.0 | 1.0 | 0.00 | 0.00 | 0.00 | 50 | 1011.8 |
| 20260905215226 | 96 | 266 | 0.0 | 1.0 | 0.00 | 0.00 | 0.00 | 52 | 1011.9 |
| 20260905214721 | 97 | 258 | 0.0 | 1.0 | 0.00 | 0.00 | 0.00 | 50 | 1012.0 |
| 20260905214216 | 96 | 268 | 0.0 | 2.0 | 0.00 | 0.00 | 0.00 | 51 | 1012.2 |
| 20260905213712 | 97 | 229 | 1.0 | 6.0 | 0.00 | 0.00 | 0.00 | 50 | 1012.2 |
| 20260905213208 | 98 | 307 | 1.0 | 2.0 | 0.00 | 0.00 | 0.00 | 49 | 1012.1 |
| 20260905212703 | 98 | 267 | 0.0 | 1.0 | 0.00 | 0.00 | 0.00 | 50 | 1012.3 |
| 20260905212202 | 98 | 251 | 1.0 | 2.0 | 0.00 | 0.00 | 0.00 | 49 | 1012.1 |
| 20260905211656 | 98 | 264 | 0.0 | 2.0 | 0.00 | 0.00 | 0.00 | 49 | 1012.3 |
| 20260905211152 | 98 | 270 | 2.0 | 2.0 | 0.00 | 0.00 | 0.00 | 49 | 1012.2 |
| 20260905210649 | 98 | 271 | 0.0 | 3.0 | 0.00 | 0.00 | 0.00 | 49 | 1012.3 |
| 20260905210148 | 98 | 266 | 2.0 | 2.0 | 0.00 | 0.00 | 0.00 | 48 | 1012.2 |
| 20260905205647 | 98 | 292 | 1.0 | 1.0 | 0.00 | 0.00 | 0.00 | 49 | 1012.3 |
| 20260905205141 | 98 | 264 | 1.0 | 3.0 | 0.00 | 0.00 | 0.00 | 48 | 1012.4 |
| 20260905204640 | 99 | 264 | 2.0 | 3.0 | 0.00 | 0.00 | 0.00 | 47 | 1012.5 |
| 20260905204137 | 98 | 274 | 0.0 | 1.0 | 0.00 | 0.00 | 0.00 | 49 | 1012.3 |
| 20260905203637 | 98 | 287 | 1.0 | 1.0 | 0.00 | 0.00 | 0.00 | 47 | 1012.5 |
| 20260905203132 | 98 | 252 | 0.0 | 6.0 | 0.00 | 0.00 | 0.00 | 48 | 1012.6 |
| 20260905202628 | 98 | 295 | 1.0 | 2.0 | 0.00 | 0.00 | 0.00 | 48 | 1012.5 |
| 20260905202123 | 98 | 274 | 1.0 | 2.0 | 0.00 | 0.00 | 0.00 | 49 | 1012.6 |
| 20260905201618 | 98 | 267 | 1.0 | 3.0 | 0.00 | 0.00 | 0.00 | 47 | 1012.8 |
| 20260905201118 | 97 | 290 | 3.0 | 4.0 | 0.00 | 0.00 | 0.00 | 49 | 1012.7 |
| 20260905200614 | 99 | 309 | 1.0 | 2.0 | 0.00 | 0.00 | 0.00 | 47 | 1012.7 |
| 20260905200109 | 99 | 256 | 1.0 | 2.0 | 0.00 | 0.00 | 0.00 | 46 | 1012.7 |
| 20260905195602 | 98 | 267 | 0.0 | 1.0 | 0.00 | 0.00 | 0.00 | 46 | 1012.8 |
| 20260905195057 | 99 | 272 | 2.0 | 3.0 | 0.00 | 0.00 | 0.00 | 46 | 1012.9 |
| 20260905194557 | 99 | 270 | 1.0 | 3.0 | 0.00 | 0.00 | 0.00 | 48 | 1013.0 |
| 20260905194056 | 98 | 272 | 1.0 | 2.0 | 0.00 | 0.00 | 0.00 | 49 | 1013.0 |
| 20260905193551 | 98 | 269 | 0.0 | 2.0 | 0.00 | 0.00 | 0.00 | 48 | 1012.9 |
| 20260905193046 | 98 | 253 | 0.0 | 1.0 | 0.00 | 0.00 | 0.00 | 49 | 1013.1 |
| 20260905192542 | 99 | 319 | 1.0 | 2.0 | 0.00 | 0.00 | 0.00 | 48 | 1013.1 |
| 20260905192038 | 98 | 184 | 1.0 | 1.0 | 0.00 | 0.00 | 0.00 | 47 | 1013.2 |
| 20260905191536 | 98 | 263 | 1.0 | 2.0 | 0.00 | 0.00 | 0.00 | 50 | 1013.3 |
| 20260905191035 | 98 | 265 | 1.0 | 2.0 | 0.00 | 0.00 | 0.00 | 48 | 1013.4 |
| 20260905190534 | 99 | 247 | 1.0 | 2.0 | 0.00 | 0.00 | 0.00 | 46 | 1013.6 |
| 20260905190033 | 98 | 264 | 0.0 | 2.0 | 0.00 | 0.00 | 0.00 | 50 | 1013.5 |
| 20260905185533 | 96 | 262 | 1.0 | 4.0 | 0.00 | 0.00 | 0.00 | 49 | 1013.7 |
| 20260905185027 | 97 | 355 | 2.0 | 4.0 | 0.00 | 0.00 | 0.00 | 48 | 1013.7 |
| 20260905184526 | 98 | 281 | 1.0 | 3.0 | 0.00 | 0.00 | 0.00 | 46 | 1013.7 |
| 20260905184025 | 99 | 271 | 1.0 | 1.0 | 0.00 | 0.00 | 0.00 | 48 | 1013.7 |
| 20260905183526 | 98 | 260 | 1.0 | 1.0 | 0.00 | 0.00 | 0.00 | 46 | 1013.8 |
| 20260905183021 | 97 | 268 | 1.0 | 2.0 | 0.00 | 0.00 | 0.00 | 46 | 1013.7 |
| 20260905182521 | 97 | 264 | 0.0 | 2.0 | 0.00 | 0.00 | 0.00 | 47 | 1013.9 |
| 20260905182021 | 98 | 242 | 1.0 | 1.0 | 0.00 | 0.00 | 0.00 | 45 | 1014.1 |
| 20260905181516 | 97 | 259 | 2.0 | 3.0 | 0.00 | 0.00 | 0.00 | 47 | 1014.1 |
| 20260905181015 | 97 | 263 | 0.0 | 1.0 | 0.00 | 0.00 | 0.00 | 47 | 1014.1 |
| 20260905180510 | 96 | 262 | 1.0 | 2.0 | 0.00 | 0.00 | 0.00 | 51 | 1014.0 |
| 20260905180005 | 96 | 265 | 0.0 | 2.0 | 0.00 | 0.00 | 0.00 | 50 | 1014.2 |
| 20260905175504 | 96 | 275 | 2.0 | 2.0 | 0.00 | 0.00 | 0.00 | 48 | 1014.1 |
| 20260905175000 | 96 | 283 | 1.0 | 3.0 | 0.00 | 0.00 | 0.00 | 48 | 1014.3 |
| 20260905174455 | 96 | 282 | 2.0 | 2.0 | 0.00 | 0.00 | 0.00 | 48 | 1014.5 |
| 20260905173951 | 96 | 288 | 2.0 | 2.0 | 0.00 | 0.00 | 0.00 | 47 | 1014.5 |
| 20260905173447 | 95 | 236 | 0.0 | 2.0 | 0.00 | 0.00 | 0.00 | 50 | 1014.4 |
| 20260905172942 | 95 | 262 | 2.0 | 3.0 | 0.00 | 0.00 | 0.00 | 51 | 1014.5 |
| 20260905172440 | 93 | 257 | 0.0 | 2.0 | 0.00 | 0.00 | 0.00 | 52 | 1014.4 |
| 20260905171936 | 94 | 100 | 1.0 | 4.0 | 0.00 | 0.00 | 0.00 | 49 | 1014.4 |
| 20260905171433 | 95 | 343 | 0.0 | 2.0 | 0.00 | 0.00 | 0.00 | 53 | 1014.5 |
| 20260905170929 | 94 | 279 | 1.0 | 2.0 | 0.00 | 0.00 | 0.00 | 49 | 1014.3 |
| 20260905170424 | 93 | 210 | 1.0 | 2.0 | 0.00 | 0.00 | 0.00 | 52 | 1014.6 |
| 20260905165924 | 94 | 118 | 2.0 | 2.0 | 0.00 | 0.00 | 0.00 | 48 | 1014.7 |
| 20260905165419 | 93 | 282 | 2.0 | 3.0 | 0.00 | 0.00 | 0.00 | 48 | 1014.9 |
| 20260905164914 | 93 | 293 | 1.0 | 2.0 | 0.00 | 0.00 | 0.00 | 48 | 1014.9 |
| 20260905164408 | 93 | 265 | 1.0 | 2.0 | 0.00 | 0.00 | 0.00 | 47 | 1015.0 |
| 20260905163903 | 94 | 320 | 1.0 | 2.0 | 0.00 | 0.00 | 0.00 | 47 | 1014.8 |
| 20260905163400 | 93 | 271 | 0.0 | 2.0 | 0.00 | 0.00 | 0.00 | 50 | 1014.9 |
| 20260905162856 | 91 | 256 | 2.0 | 4.0 | 0.00 | 0.00 | 0.00 | 52 | 1015.1 |
| 20260905162355 | 91 | 43 | 2.0 | 2.0 | 0.00 | 0.00 | 0.00 | 52 | 1015.2 |
| 20260905161850 | 91 | 358 | 0.0 | 2.0 | 0.00 | 0.00 | 0.00 | 50 | 1015.3 |
| 20260905161350 | 91 | 235 | 1.0 | 2.0 | 0.00 | 0.00 | 0.00 | 52 | 1015.3 |
| 20260905160848 | 92 | 10 | 1.0 | 4.0 | 0.00 | 0.00 | 0.00 | 48 | 1015.3 |
| 20260905160343 | 91 | 122 | 0.0 | 3.0 | 0.00 | 0.00 | 0.00 | 49 | 1015.2 |
| 20260905155837 | 91 | 287 | 3.0 | 4.0 | 0.00 | 0.00 | 0.00 | 51 | 1015.3 |
| 20260905155337 | 90 | 273 | 2.0 | 3.0 | 0.00 | 0.00 | 0.00 | 51 | 1015.2 |
| 20260905154836 | 89 | 185 | 3.0 | 3.0 | 0.00 | 0.00 | 0.00 | 51 | 1015.2 |
| 20260905154332 | 88 | 306 | 2.0 | 2.0 | 0.00 | 0.00 | 0.00 | 55 | 1015.2 |
| 20260905153827 | 89 | 17 | 1.0 | 2.0 | 0.00 | 0.00 | 0.00 | 54 | 1015.3 |
| 20260905153324 | 88 | 307 | 2.0 | 3.0 | 0.00 | 0.00 | 0.00 | 54 | 1015.4 |
| 20260905152823 | 89 | 350 | 1.0 | 2.0 | 0.00 | 0.00 | 0.00 | 54 | 1015.4 |
| 20260905152322 | 88 | 268 | 2.0 | 2.0 | 0.00 | 0.00 | 0.00 | 56 | 1015.5 |
| 20260905151818 | 88 | 52 | 1.0 | 2.0 | 0.00 | 0.00 | 0.00 | 56 | 1015.5 |
| 20260905151313 | 87 | 351 | 0.0 | 1.0 | 0.00 | 0.00 | 0.00 | 57 | 1015.7 |
| 20260905150813 | 86 | 272 | 0.0 | 2.0 | 0.00 | 0.00 | 0.00 | 57 | 1015.7 |
| 20260905150313 | 86 | 143 | 2.0 | 6.0 | 0.00 | 0.00 | 0.00 | 57 | 1015.7 |
| 20260905145811 | 87 | 5 | 2.0 | 6.0 | 0.00 | 0.00 | 0.00 | 57 | 1015.7 |
| 20260905145310 | 86 | 244 | 1.0 | 4.0 | 0.00 | 0.00 | 0.00 | 61 | 1015.5 |
| 20260905144809 | 86 | 270 | 0.0 | 3.0 | 0.00 | 0.00 | 0.00 | 61 | 1015.6 |
| 20260905144305 | 85 | 10 | 1.0 | 2.0 | 0.00 | 0.00 | 0.00 | 62 | 1015.7 |
| 20260905143804 | 84 | 79 | 3.0 | 7.0 | 0.00 | 0.00 | 0.00 | 61 | 1015.7 |
| 20260905143258 | 84 | 49 | 5.0 | 7.0 | 0.00 | 0.00 | 0.00 | 61 | 1015.8 |
| 20260905142757 | 84 | 171 | 3.0 | 7.0 | 0.00 | 0.00 | 0.00 | 64 | 1015.9 |
| 20260905142251 | 83 | 289 | 2.0 | 7.0 | 0.00 | 0.00 | 0.00 | 66 | 1015.8 |
| 20260905141748 | 83 | 114 | 6.0 | 8.0 | 0.00 | 0.00 | 0.00 | 66 | 1015.6 |
| 20260905141244 | 82 | 266 | 2.0 | 4.0 | 0.00 | 0.00 | 0.00 | 69 | 1015.9 |
| 20260905140739 | 82 | 96 | 1.0 | 7.0 | 0.00 | 0.00 | 0.00 | 70 | 1016.1 |
| 20260905140239 | 82 | 57 | 3.0 | 4.0 | 0.00 | 0.00 | 0.00 | 70 | 1016.1 |
| 20260905135737 | 81 | 165 | 3.0 | 6.0 | 0.00 | 0.00 | 0.00 | 71 | 1016.2 |
| 20260905135234 | 81 | 127 | 2.0 | 8.0 | 0.00 | 0.00 | 0.00 | 72 | 1015.9 |
| 20260905134733 | 81 | 196 | 2.0 | 3.0 | 0.00 | 0.00 | 0.00 | 71 | 1016.1 |
| 20260905134233 | 80 | 57 | 3.0 | 7.0 | 0.00 | 0.00 | 0.00 | 73 | 1016.2 |
| 20260905133728 | 80 | 100 | 2.0 | 10.0 | 0.00 | 0.00 | 0.00 | 74 | 1015.9 |
| 20260905133223 | 80 | 157 | 1.0 | 6.0 | 0.00 | 0.00 | 0.00 | 74 | 1016.2 |
| 20260905132722 | 80 | 103 | 1.0 | 7.0 | 0.00 | 0.00 | 0.00 | 75 | 1016.3 |
| 20260905132218 | 79 | 48 | 2.0 | 9.0 | 0.00 | 0.00 | 0.00 | 76 | 1016.7 |
| 20260905131712 | 79 | 65 | 2.0 | 10.0 | 0.00 | 0.00 | 0.00 | 78 | 1016.5 |
| 20260905131208 | 79 | 81 | 4.0 | 8.0 | 0.00 | 0.00 | 0.00 | 79 | 1016.5 |
| 20260905130702 | 78 | 61 | 3.0 | 7.0 | 0.00 | 0.00 | 0.00 | 82 | 1016.5 |
| 20260905130201 | 78 | 357 | 2.0 | 9.0 | 0.00 | 0.00 | 0.00 | 82 | 1016.5 |
| 20260905125655 | 78 | 128 | 3.0 | 8.0 | 0.00 | 0.00 | 0.00 | 84 | 1016.8 |
| 20260905125151 | 77 | 245 | 1.0 | 7.0 | 0.00 | 0.00 | 0.00 | 86 | 1016.4 |
| 20260905124648 | 77 | 322 | 1.0 | 4.0 | 0.00 | 0.00 | 0.00 | 92 | 1016.8 |
| 20260905124144 | 78 | 311 | 0.0 | 1.0 | 0.00 | 0.00 | 0.00 | 91 | 1015.7 |
| 20260905123638 | 78 | 264 | 0.0 | 0.0 | 0.00 | 0.00 | 0.00 | 90 | 1015.6 |
| 20260905123136 | 78 | 264 | 0.0 | 0.0 | 0.00 | 0.00 | 0.00 | 92 | 1015.6 |
| 20260905122635 | 77 | 261 | 0.0 | 0.0 | 0.00 | 0.00 | 0.00 | 94 | 1015.6 |
| 20260905122130 | 77 | 270 | 0.0 | 0.0 | 0.00 | 0.00 | 0.00 | 97 | 1015.4 |
| 20260905121625 | 75 | 260 | 0.0 | 0.0 | 0.00 | 0.00 | 0.00 | 98 | 1015.4 |
| 20260905121120 | 74 | 278 | 0.0 | 0.0 | 0.00 | 0.00 | 0.00 | 98 | 1015.0 |
| 20260905120619 | 73 | 316 | 0.0 | 1.0 | 0.00 | 0.00 | 0.00 | 98 | 1015.3 |
| 20260905120114 | 73 | 258 | 0.0 | 0.0 | 0.00 | 0.00 | 0.00 | 98 | 1015.2 |
| 20260905115613 | 72 | 267 | 0.0 | 1.0 | 0.00 | 0.00 | 0.00 | 98 | 1015.2 |
| 20260905115108 | 72 | 343 | 1.0 | 2.0 | 0.00 | 0.00 | 0.00 | 98 | 1015.2 |
| 20260905114608 | 71 | 264 | 0.0 | 0.0 | 0.00 | 0.00 | 0.00 | 98 | 1015.1 |
| 20260905114107 | 71 | 264 | 0.0 | 0.0 | 0.00 | 0.00 | 0.00 | 98 | 1015.0 |
| 20260905113602 | 71 | 264 | 0.0 | 0.0 | 0.00 | 0.00 | 0.00 | 98 | 1014.9 |
| 20260905113057 | 71 | 264 | 0.0 | 0.0 | 0.00 | 0.00 | 0.00 | 98 | 1014.9 |
| 20260905112552 | 71 | 264 | 0.0 | 0.0 | 0.00 | 0.00 | 0.00 | 98 | 1014.9 |
| 20260905112048 | 71 | 264 | 0.0 | 0.0 | 0.00 | 0.00 | 0.00 | 98 | 1014.7 |
| 20260905111543 | 71 | 264 | 0.0 | 0.0 | 0.00 | 0.00 | 0.00 | 98 | 1014.6 |
| 20260905111042 | 71 | 264 | 0.0 | 0.0 | 0.00 | 0.00 | 0.00 | 97 | 1014.4 |
| 20260905110541 | 71 | 264 | 0.0 | 0.0 | 0.00 | 0.00 | 0.00 | 97 | 1014.6 |
| 20260905110036 | 71 | 264 | 0.0 | 0.0 | 0.00 | 0.00 | 0.00 | 97 | 1014.4 |
| 20260905105536 | 71 | 264 | 0.0 | 0.0 | 0.00 | 0.00 | 0.00 | 97 | 1014.3 |
| 20260905105036 | 71 | 264 | 0.0 | 0.0 | 0.00 | 0.00 | 0.00 | 97 | 1014.3 |
| 20260905104532 | 71 | 264 | 0.0 | 0.0 | 0.00 | 0.00 | 0.00 | 97 | 1014.0 |
| 20260905104031 | 71 | 264 | 0.0 | 0.0 | 0.00 | 0.00 | 0.00 | 97 | 1014.0 |
| 20260905103527 | 71 | 264 | 0.0 | 0.0 | 0.00 | 0.00 | 0.00 | 97 | 1014.1 |
| 20260905103023 | 71 | 264 | 0.0 | 0.0 | 0.00 | 0.00 | 0.00 | 97 | 1014.2 |
| 20260905102518 | 71 | 264 | 0.0 | 0.0 | 0.00 | 0.00 | 0.00 | 97 | 1014.3 |
| 20260905102015 | 71 | 264 | 0.0 | 0.0 | 0.00 | 0.00 | 0.00 | 97 | 1014.1 |
| 20260905101513 | 72 | 264 | 0.0 | 0.0 | 0.00 | 0.00 | 0.00 | 97 | 1014.2 |
| 20260905101011 | 72 | 263 | 0.0 | 0.0 | 0.00 | 0.00 | 0.00 | 97 | 1014.2 |
| 20260905100508 | 72 | 264 | 0.0 | 0.0 | 0.00 | 0.00 | 0.00 | 96 | 1014.3 |
| 20260905100007 | 72 | 263 | 0.0 | 0.0 | 0.00 | 0.00 | 0.00 | 96 | 1014.2 |
| 20260905095502 | 72 | 263 | 0.0 | 0.0 | 0.00 | 0.00 | 0.00 | 96 | 1014.3 |
| 20260905094957 | 72 | 264 | 0.0 | 0.0 | 0.00 | 0.00 | 0.00 | 96 | 1014.1 |
| 20260905094452 | 72 | 263 | 0.0 | 0.0 | 0.00 | 0.00 | 0.00 | 96 | 1014.2 |
| 20260905093951 | 72 | 263 | 0.0 | 0.0 | 0.00 | 0.00 | 0.00 | 96 | 1014.2 |